Flag for Spain Weather past 2 weeks in Santander, Spain

Now
54 °F

Overcast.


Feels Like: 52 °F
Forecast: 55 / 59 °F
Wind: 7 mph from Southwest

Location: Santander / Parayas

Current Time: Mar 29, 2015 at 6:05:45 AM

Latest Report: Mar 29, 2015 at 5:30 AM


Visibility: 4 mi

Pressure: 30.36 "Hg

Humidity: 88%

Dew point: 50 °F

Location of SantanderLocation

Historic Weather in Santander — Graph

°F

Santander temperature yesterday

Maximum temperature yesterday: 59 °F (at 2:00 PM)
Minimum temperature yesterday: 52 °F (at 5:30 AM)
Average temperature yesterday: 54 °F

Past Weeks' High & Low Weather Summary

 TemperatureHumidityPressure
High64 °F (Mar 17, 1:00 PM)100% (Mar 19, 9:00 AM)30.48 "Hg (Mar 19, 9:00 AM)
Low36 °F (Mar 16, 7:00 AM)32% (Mar 17, 1:00 PM)29.83 "Hg (Mar 23, 4:00 PM)
Average49 °F82%30.11 "Hg
* Reported Mar 13 11:00 PM — Mar 28 11:00 PM, Santander, Weather by CustomWeather, © 2015

Note: Actual official high and low records may vary slightly from our data, if they occured in-between our weather recording intervals... More about our weather records

Advertising

Santander weather history for previous 24 hours

 ConditionsComfort  
Time TempWeatherWind HumidityBarometerVisibility
11:00 PM
Sat, Mar 28
54 °FPassing clouds.8 mph77%30.39 "HgN/A
10:30 PM54 °FPassing clouds.8 mph77%30.39 "HgN/A
10:00 PM54 °FPassing clouds.9 mph77%30.39 "HgN/A
9:30 PM54 °FPassing clouds.8 mph82%30.42 "HgN/A
9:00 PM54 °FPassing clouds.6 mph82%30.42 "HgN/A
8:30 PM54 °FPassing clouds.7 mph82%30.42 "HgN/A
8:00 PM54 °FPassing clouds.8 mph82%30.42 "HgN/A
7:30 PM54 °FPassing clouds.7 mph82%30.42 "HgN/A
7:00 PM55 °FPassing clouds.6 mph77%30.42 "HgN/A
6:30 PM55 °FScattered clouds.6 mph82%30.42 "HgN/A
6:00 PM55 °FScattered clouds.9 mph77%30.39 "HgN/A
5:30 PM55 °FScattered clouds.10 mph82%30.42 "HgN/A
5:00 PM54 °FPartly sunny.12 mph82%30.42 "HgN/A
4:30 PM55 °FPartly sunny.8 mph82%30.42 "HgN/A
4:00 PM55 °FPartly sunny.12 mph82%30.45 "HgN/A
3:30 PM55 °FPartly sunny.15 mph82%30.45 "HgN/A
3:00 PM55 °FPartly sunny.12 mph82%30.45 "HgN/A
2:30 PM55 °FScattered clouds.12 mph82%30.42 "HgN/A
2:00 PM59 °FScattered clouds.6 mph77%30.42 "HgN/A
1:30 PM57 °FScattered clouds.8 mph82%30.42 "HgN/A
1:00 PM55 °FBroken clouds.10 mph88%30.42 "HgN/A
12:30 PM55 °FBroken clouds.8 mph88%30.42 "HgN/A
12:00 PM54 °FDrizzle. Broken clouds.8 mph94%30.45 "Hg5 mi
11:30 AM54 °FDrizzle. Mostly cloudy.6 mph94%30.48 "Hg4 mi
11:00 AM52 °FDrizzle. Fog.7 mph100%30.48 "Hg2 mi
10:30 AM52 °FDrizzle. Fog.8 mph94%30.48 "Hg2 mi
10:00 AM52 °FFog.5 mph100%30.45 "Hg3 mi
9:30 AM52 °FDrizzle. Fog.3 mph94%30.45 "Hg2 mi
9:00 AM52 °FDrizzle. Fog.6 mph94%30.45 "Hg2 mi
8:30 AM52 °FFog.6 mph94%30.45 "Hg3 mi
8:00 AM52 °FFog.5 mph94%30.45 "Hg3 mi
7:30 AM52 °FFog.6 mph94%30.45 "Hg3 mi
7:00 AM52 °FFog.3 mph94%30.45 "Hg3 mi
6:30 AM52 °FFog.8 mph94%30.45 "Hg3 mi
6:00 AM52 °FFog.6 mph94%30.45 "Hg3 mi
Weather by CustomWeather, © 2015

See weather overviewHow to use our weather pages